Helena, MT

1:44 AM MDT on July 24, 2017 (GMT -0600)
Helena Regional

Weather History for KHLN - March, 2014

Change the Weather History Date:

Wednesday, March 5, 2014

  Actual Average Record
Temperature  
Mean Temperature 41 °F 33 °F  
Max Temperature 52 °F 44 °F 73 °F (1987)
Min Temperature 30 °F 21 °F -24 °F (1945)
Degree Days  
Heating Degree Days 24 32  
Month to date heating degree days 235 165  
Since 1 July heating degree days 5751 5726  
Cooling Degree Days 0 0  
Month to date cooling degree days 0 0  
Year to date cooling degree days 0 0  
Moisture  
Dew Point 29 °F    
Average Humidity 62    
Maximum Humidity 78    
Minimum Humidity 46    
Precipitation  
Precipitation 0.00 in 0.01 in 0.73 in (1932)
Month to date precipitation 0.12 0.07  
Year to date precipitation 2.65 0.73  
Snow  
Snow 0.00 in 0.20 in 10.30 in (1932)
Month to date snowfall 3.0 1.0  
Since 1 July snowfall 41.0 28.3  
Snow Depth 5.00 in    
Sea Level Pressure  
Sea Level Pressure 29.90 in    
Wind  
Wind Speed 5 mph (West)    
Max Wind Speed 16 mph    
Max Gust Speed 23 mph    
Visibility 10 miles    
Events      
T = Trace of Precipitation, MM = Missing Value Source: NWS Daily Summary

Daily Weather History Graph

Daily Weather History Graph

Search for Another Location

Airport or City:

Trip Planner

Search our weather history database for the weather conditions in past years. The results will help you decide how hot, cold, wet, or windy it might be!

Date:

Astronomy

Mar. 05, 2014 Rise Set
Actual Time 6:59 AM MST 6:19 PM MST
Civil Twilight 6:29 AM MST 6:49 PM MST
Nautical Twilight 5:54 AM MST 7:24 PM MST
Astronomical Twilight 5:19 AM MST 8:00 PM MST
Moon 9:09 AM MST (3/5) 11:51 PM MST (3/5)
Length of Visible Light 12h 20m
Length of Day
11h 19m
Waxing Crescent, 24% of the Moon is Illuminated
Mar 5
Waxing Crescent
Mar 8
First Quarter
Mar 16
Full
Mar 23
Last Quarter
Mar 30
New

Hourly Weather History & Observations

Time (MST) Temp. Windchill Dew Point Humidity Pressure Visibility Wind Dir Wind Speed Gust Speed Precip Events Conditions
12:53 AM 37.9 °F 30.9 °F 27.0 °F 65% 30.01 in 10.0 mi West 10.4 mph - N/A   Clear
1:53 AM 36.0 °F 32.1 °F 27.0 °F 70% 30.02 in 10.0 mi ENE 4.6 mph - N/A   Mostly Cloudy
2:53 AM 35.1 °F 31.0 °F 26.1 °F 70% 30.01 in 10.0 mi SSW 4.6 mph - N/A   Partly Cloudy
3:53 AM 35.1 °F 32.2 °F 25.0 °F 67% 30.00 in 10.0 mi WSW 3.5 mph - N/A   Mostly Cloudy
4:53 AM 33.1 °F - 25.0 °F 72% 30.00 in 10.0 mi Calm Calm - N/A   Mostly Cloudy
5:53 AM 30.9 °F 26.2 °F 24.1 °F 76% 29.99 in 10.0 mi NW 4.6 mph - N/A   Overcast
6:53 AM 30.0 °F 25.2 °F 24.1 °F 79% 29.99 in 10.0 mi WSW 4.6 mph - N/A   Mostly Cloudy
7:53 AM 30.0 °F - 24.1 °F 79% 29.97 in 10.0 mi Calm Calm - N/A   Clear
8:53 AM 35.1 °F 30.1 °F 25.0 °F 67% 29.97 in 10.0 mi West 5.8 mph - N/A   Partly Cloudy
9:53 AM 37.0 °F - 27.0 °F 67% 29.92 in 10.0 mi Calm Calm - N/A   Clear
10:53 AM 37.9 °F 32.7 °F 27.0 °F 65% 29.91 in 10.0 mi WNW 6.9 mph - N/A   Clear
11:53 AM 42.1 °F - 28.0 °F 58% 29.85 in 10.0 mi Calm Calm - N/A   Partly Cloudy
12:53 PM 43.0 °F 38.8 °F 28.0 °F 56% 29.83 in 10.0 mi NW 6.9 mph - N/A   Clear
1:53 PM 42.1 °F 38.4 °F 30.0 °F 62% 29.88 in 10.0 mi WNW 5.8 mph - N/A   Overcast
2:53 PM 50.0 °F - 30.9 °F 48% 29.82 in 10.0 mi South 8.1 mph - N/A   Clear
3:53 PM 46.9 °F - 30.9 °F 54% 29.82 in 10.0 mi NNE 3.5 mph - N/A   Partly Cloudy
4:53 PM 45.0 °F - 32.0 °F 60% 29.84 in 10.0 mi Calm Calm - N/A   Clear
5:53 PM 43.0 °F 38.8 °F 32.0 °F 65% 29.87 in 10.0 mi WSW 6.9 mph - N/A   Mostly Cloudy
6:53 PM 46.9 °F - 30.9 °F 54% 29.87 in 10.0 mi Calm Calm - N/A   Clear
7:53 PM 46.0 °F 39.9 °F 33.1 °F 61% 29.86 in 10.0 mi SSE 13.8 mph 23.0 mph N/A   Partly Cloudy
8:53 PM 43.0 °F 40.3 °F 32.0 °F 65% 29.84 in 10.0 mi WSW 4.6 mph - N/A   Clear
9:53 PM 43.0 °F 37.7 °F 33.1 °F 68% 29.83 in 10.0 mi ESE 9.2 mph - N/A   Clear
10:53 PM 41.0 °F - 33.1 °F 73% 29.78 in 10.0 mi Calm Calm - N/A   Partly Cloudy
11:53 PM 39.0 °F 32.8 °F 32.0 °F 76% 29.75 in 10.0 mi WNW 9.2 mph - N/A   Clear